Location: Clarion
(42.7316°N, 93.7330°W)
Time: 09:23:30
(UTC+00:00)

CZ-4C R/B - Pass Details

Date: 22 April 2026
Orbit: 475 x 1502 km, 63.4° (Epoch: 17 May)

Event Time Altitude Azimuth Distance (km) Brightness Sun altitude
Exits shadow 08:21:32 25° 319° (NW) 1,357 3.4 -27.7°
Maximum altitude 08:21:48 25° 324° (NW) 1,364 3.4 -27.7°
Drops below altitude 10° 08:26:13 10° 20° (NNE) 2,391 5.5 -27.2°
Sets 08:29:27 0° 32° (NNE) 3,531 6.7 -26.8°
